[[{"header":{"parameterUnit":"m.s-1","parameterCategory":1,"la1":30.2991,"la2":30.254,"lo1":-89.0895,"lo2":-89.0444,"dy":0.0017,"dx":0.0017,"nx":28,"ny":28,"refTime":"2025-01-08T03:00:00:Z","depth":0,"parameterNumber":2,"parameterNumberName":"U-component_of_WINDS"},"data":[0,0,0,0,0,0,0,0,0,0,0,0,0,0,0,0,0,0,0,0,0,0,0,0,0,0,0,0,0,0,0,0,0,0,0,0,0,0,0,0,0,0,0,0,0,0,0,0,0,0,0,0,0,0,0,0,0,0,-0.5797,-0.5797,0,-0.5857,-0.5858,-0.5858,-0.5809,-0.5807,-0.5805,-0.5803,-0.5868,-0.5872,-0.5875,0,0,0,0,0,0,0,0,0,0,0,0,0,-0.5641,-0.5644,-0.5797,-0.5797,-0.5798,-0.5857,-0.5858,-0.5859,-0.5809,-0.5807,-0.5804,-0.5802,-0.5867,-0.5871,-0.5876,0,0,0,0,0,0,0,0,0,0,0,0,0,-0.5706,-0.5645,-0.5797,-0.578,-0.578,-0.5857,-0.5858,-0.5859,-0.581,-0.5806,-0.5803,-0.58,-0.5865,-0.5871,-0.5876,-0.5973,0,0,-0.5893,-0.5896,0,0,0,0,0,0,0,0,-0.5702,-0.5712,-0.5782,-0.5782,-0.5781,-0.5822,-0.5827,-0.5897,-0.581,-0.5798,-0.5803,-0.5799,-0.5855,-0.5862,-0.588,-0.5976,-0.5979,-0.5894,-0.5897,-0.5899,-0.5901,0,0,0,0,0,0,0,-0.5698,-0.5709,-0.5821,-0.5783,-0.5782,-0.5771,-0.5777,-0.584,-0.5844,-0.5799,-0.5796,-0.5803,-0.5855,-0.5875,-0.5881,-0.598,-0.5893,-0.5898,-0.5902,-0.5904,-0.6159,-0.6163,0,0,0,0,0,0,-0.5695,-0.5706,-0.5819,-0.5822,-0.5733,-0.5776,-0.5783,-0.5812,-0.5843,-0.5845,-0.5806,-0.5801,-0.5867,-0.5875,-0.5883,-0.6,-0.5899,-0.5905,-0.5908,-0.6156,-0.616,-0.6164,0,0,0,0,0,0,-0.5692,-0.5705,-0.5816,-0.5763,-0.5776,-0.5782,-0.5816,-0.5815,-0.5835,-0.5848,-0.5849,-0.5826,-0.5865,-0.5875,-0.5951,-0.6001,-0.5907,-0.5912,-0.6152,-0.6157,-0.6162,-0.6234,0,0,0,0,0,0,-0.5687,-0.5704,-0.5741,-0.5764,-0.5779,-0.5883,-0.5819,-0.5818,-0.5844,-0.5838,-0.5867,-0.5869,-0.5863,-0.5943,-0.5957,-0.6007,-0.5916,-0.6147,-0.6154,-0.616,-0.6227,-0.624,-0.6252,0,0,0,0,0,-0.5682,-0.576,-0.5743,-0.5757,-0.5825,-0.5886,-0.5894,-0.5885,-0.5848,-0.5886,-0.5894,-0.5868,-0.5993,-0.5951,-0.5966,-0.6019,-0.6144,-0.6152,-0.616,-0.6221,-0.6238,-0.6252,0,0,0,0,0,0,-0.5744,-0.5762,-0.5744,-0.5832,-0.5857,-0.5877,-0.5924,-0.5903,-0.5941,-0.5934,-0.5922,-0.5929,-0.6008,-0.6021,-0.5974,-0.6115,-0.6063,-0.6074,-0.6104,-0.612,-0.6133,-0.6129,-0.5921,0,0,0,0,0,-0.5767,-0.5814,-0.5828,-0.5904,-0.5917,-0.5918,-0.5944,-0.5935,-0.5962,-0.5973,-0.5986,-0.6014,-0.606,-0.609,-0.6133,-0.6227,-0.6233,-0.6271,-0.6284,-0.6294,-0.6305,-0.6356,-0.6373,-0.6189,-0.6189,-0.6189,0,0,-0.5817,-0.5833,-0.5863,-0.5916,-0.5935,-0.5985,-0.5928,-0.5983,-0.602,-0.5981,-0.6054,-0.6065,-0.6095,-0.618,-0.6219,-0.6193,-0.6356,-0.6304,-0.6312,-0.6317,-0.6366,-0.6383,-0.6399,-0.6195,-0.6194,-0.6193,0,0,-0.5934,-0.5949,-0.6014,-0.6034,-0.6062,-0.6062,-0.6078,-0.6101,-0.6106,-0.6178,-0.615,-0.6194,-0.6272,-0.6295,-0.6317,-0.644,-0.6418,-0.6454,-0.6522,-0.6572,-0.6587,-0.66,-0.6645,-0.6661,-0.6464,-0.6464,-0.6464,0,-0.5993,-0.6065,-0.6051,-0.6108,-0.6133,-0.6097,-0.6164,-0.6183,-0.6225,-0.6243,-0.6213,-0.6311,-0.6328,-0.6419,-0.6449,-0.6467,-0.6486,-0.6452,-0.6585,-0.6598,-0.661,-0.6653,-0.667,-0.6468,-0.6468,-0.6467,-0.6467,0,-0.6137,-0.6188,-0.6237,-0.6277,-0.6306,-0.6368,-0.6363,-0.6395,-0.6382,-0.6386,-0.6459,-0.6479,-0.6525,-0.6545,-0.6534,-0.6634,-0.6618,-0.6587,-0.6535,-0.6632,-0.6673,-0.6689,-0.6475,-0.6473,-0.6472,-0.6471,0,0,-0.6297,-0.6326,-0.6345,-0.6363,-0.639,-0.643,-0.6489,-0.6533,-0.6561,-0.659,-0.6641,-0.6707,-0.6679,-0.6703,-0.6694,-0.6737,-0.6835,-0.6701,-0.6702,-0.6727,-0.6949,-0.6974,-0.6993,-0.6819,-0.6822,-0.6825,-0.6947,0,-0.6416,-0.652,-0.6507,-0.6607,-0.6654,-0.662,-0.6672,-0.6695,-0.6699,-0.6741,-0.6745,-0.6793,-0.675,-0.6765,-0.6807,-0.6815,-0.688,-0.6805,-0.6868,-0.6871,-0.6864,-0.7014,-0.7041,-0.7156,-0.6963,-0.6965,-0.6967,0,-0.657,-0.6603,-0.6707,-0.6727,-0.6746,-0.6793,-0.6832,-0.6872,-0.6897,-0.6897,-0.6924,-0.6906,-0.6967,-0.6911,-0.6995,-0.6944,-0.6969,-0.6976,-0.698,-0.6988,-0.6927,-0.7028,-0.7192,-0.721,-0.6992,-0.699,-0.6988,0,-0.6679,-0.6749,-0.6821,-0.6836,-0.6861,-0.6895,-0.6907,-0.6929,-0.6956,-0.699,-0.7007,-0.7048,-0.7071,-0.7103,-0.7097,-0.7057,-0.7184,-0.7127,-0.7187,-0.7187,-0.7218,-0.7216,-0.739,-0.7229,-0.7229,-0.7228,-0.7228,0,-0.6815,-0.688,-0.687,-0.6914,-0.6986,-0.6971,-0.7043,-0.7051,-0.707,-0.7116,-0.7088,-0.7132,-0.712,-0.7163,-0.7159,-0.723,-0.724,-0.7242,-0.7241,-0.7247,-0.7247,-0.7265,-0.7258,-0.7233,-0.7232,-0.7231,-0.723,0,-0.6951,-0.6946,-0.7021,-0.7038,-0.7043,-0.7096,-0.711,-0.7152,-0.7153,-0.7211,-0.7224,-0.7225,-0.7275,-0.7271,-0.7327,-0.7323,-0.7412,-0.74,-0.7403,-0.7402,-0.7462,-0.7457,-0.7656,-0.7682,-0.7502,-0.7503,-0.7505,0,-0.7039,-0.7088,-0.7109,-0.7137,-0.7151,-0.7197,-0.7223,-0.721,-0.7239,-0.7271,-0.7309,-0.7355,-0.7392,-0.7473,-0.748,-0.7522,-0.7512,-0.7578,-0.7519,-0.7523,-0.7516,-0.7514,-0.7519,-0.7591,-0.7593,-0.7595,-0.7596,0,-0.7197,-0.7192,-0.7231,-0.727,-0.7302,-0.7332,-0.7359,-0.7383,-0.7372,-0.7407,-0.7456,-0.7484,-0.754,-0.7587,-0.7627,-0.764,-0.7618,-0.7614,-0.7631,-0.7639,-0.764,-0.7642,-0.7438,-0.7611,-0.761,-0.7608,-0.7608,-0.7607,-0.7313,-0.7356,-0.7377,-0.7421,-0.744,-0.7465,-0.7505,-0.751,-0.7551,-0.7595,-0.7584,-0.764,-0.7663,-0.7715,-0.7731,-0.7775,-0.7752,-0.7775,-0.7781,-0.7788,-0.7796,-0.763,-0.7782,-0.7782,-0.7781,-0.7781,-0.7781,0,-0.7472,-0.7483,-0.7524,-0.7562,-0.7597,-0.757,-0.7598,-0.763,-0.7679,-0.7702,-0.7738,-0.7795,-0.7839,-0.7849,-0.7892,-0.7925,-0.7916,-0.7937,-0.7936,-0.794,-0.7814,-0.7796,-0.7944,-0.7944,-0.7944,-0.7944,-0.7944,-0.7944,-0.7559,-0.7629,-0.7626,-0.7706,-0.7716,-0.777,-0.7789,-0.7813,-0.7831,-0.7895,-0.7932,-0.7937,-0.7955,-0.7998,-0.8038,-0.804,-0.8058,-0.8084,-0.8082,-0.7965,-0.7949,-0.7933,-0.7917,-0.8088,-0.8088,-0.8205,-0.8206,-0.8207]},{"header":{"parameterUnit":"m.s-1","parameterCategory":1,"la1":30.2991,"la2":30.254,"lo1":-89.0895,"lo2":-89.0444,"dy":0.0017,"dx":0.0017,"nx":28,"ny":28,"refTime":"2025-01-08T03:00:00:Z","depth":0,"parameterNumber":3,"parameterNumberName":"V-component_of_WINDS"},"data":[0,0,0,0,0,0,0,0,0,0,0,0,0,0,0,0,0,0,0,0,0,0,0,0,0,0,0,0,0,0,0,0,0,0,0,0,0,0,0,0,0,0,0,0,0,0,0,0,0,0,0,0,0,0,0,0,0,0,-6.3646,-6.3647,0,-6.3753,-6.3754,-6.3755,-6.3663,-6.3659,-6.3656,-6.3652,-6.3758,-6.3764,-6.377,0,0,0,0,0,0,0,0,0,0,0,0,0,-6.3357,-6.3363,-6.3646,-6.3647,-6.3648,-6.3753,-6.3754,-6.3756,-6.3664,-6.3659,-6.3655,-6.365,-6.3756,-6.3763,-6.3771,0,0,0,0,0,0,0,0,0,0,0,0,0,-6.3475,-6.3364,-6.3645,-6.3615,-6.3614,-6.3752,-6.3754,-6.3756,-6.3665,-6.3659,-6.3653,-6.3648,-6.3753,-6.3763,-6.3772,-6.3945,0,0,-6.3801,-6.3805,0,0,0,0,0,0,0,0,-6.3468,-6.3486,-6.3618,-6.3618,-6.3616,-6.3689,-6.3691,-6.3819,-6.3666,-6.3645,-6.3652,-6.3645,-6.3739,-6.375,-6.3782,-6.395,-6.3954,-6.3802,-6.3808,-6.3812,-6.3815,0,0,0,0,0,0,0,-6.346,-6.348,-6.3688,-6.362,-6.3619,-6.3595,-6.3605,-6.3715,-6.3723,-6.3647,-6.364,-6.3654,-6.3737,-6.3773,-6.3784,-6.3956,-6.3802,-6.381,-6.3816,-6.382,-6.4269,-6.4274,0,0,0,0,0,0,-6.3456,-6.3474,-6.3684,-6.3691,-6.3527,-6.3605,-6.3616,-6.3671,-6.3721,-6.3724,-6.3659,-6.365,-6.376,-6.3773,-6.3787,-6.3992,-6.3812,-6.3821,-6.3826,-6.4262,-6.427,-6.4277,0,0,0,0,0,0,-6.345,-6.3475,-6.368,-6.3581,-6.3605,-6.3616,-6.3678,-6.3676,-6.3712,-6.3731,-6.3731,-6.3695,-6.3756,-6.3774,-6.3906,-6.3994,-6.3825,-6.3834,-6.4255,-6.4265,-6.4273,-6.4403,0,0,0,0,0,0,-6.3442,-6.3474,-6.3541,-6.3583,-6.3611,-6.3799,-6.3683,-6.3682,-6.3729,-6.3718,-6.3764,-6.3766,-6.3753,-6.3892,-6.3916,-6.4004,-6.3841,-6.4247,-6.4259,-6.427,-6.4391,-6.4416,-6.4437,0,0,0,0,0,-6.3432,-6.3573,-6.3545,-6.3571,-6.3695,-6.3805,-6.382,-6.3803,-6.3737,-6.3803,-6.3815,-6.3765,-6.3981,-6.3907,-6.3932,-6.4025,-6.4242,-6.4256,-6.4269,-6.4381,-6.4411,-6.4436,0,0,0,0,0,0,-6.354,-6.3578,-6.3547,-6.3706,-6.3753,-6.3789,-6.3872,-6.3835,-6.3901,-6.3887,-6.3861,-6.3873,-6.4012,-6.4031,-6.3948,-6.4194,-6.41,-6.412,-6.4176,-6.4205,-6.4227,-6.422,-6.3849,0,0,0,0,0,-6.3582,-6.3669,-6.3697,-6.3834,-6.386,-6.3862,-6.3909,-6.3892,-6.3939,-6.3957,-6.3979,-6.4025,-6.4103,-6.4155,-6.4228,-6.4393,-6.4401,-6.4469,-6.4492,-6.4511,-6.4528,-6.4615,-6.4645,-6.4322,-6.4322,-6.4322,0,0,-6.367,-6.3702,-6.3758,-6.3857,-6.3891,-6.398,-6.388,-6.3978,-6.4044,-6.3972,-6.4098,-6.4116,-6.4165,-6.4315,-6.4381,-6.4335,-6.4619,-6.4529,-6.4544,-6.4551,-6.4633,-6.4663,-6.469,-6.4332,-6.433,-6.4329,0,0,-6.3876,-6.391,-6.4027,-6.4063,-6.4117,-6.4117,-6.4146,-6.4187,-6.4196,-6.4323,-6.4271,-6.4347,-6.4483,-6.452,-6.4556,-6.4775,-6.4731,-6.4799,-6.4919,-6.5004,-6.503,-6.5052,-6.5129,-6.5157,-6.4816,-6.4817,-6.4817,0,-6.3979,-6.4112,-6.4092,-6.4195,-6.4239,-6.4179,-6.4297,-6.4332,-6.4406,-6.4438,-6.4385,-6.4553,-6.4582,-6.4738,-6.4792,-6.4824,-6.4854,-6.4794,-6.5028,-6.505,-6.5071,-6.5144,-6.5173,-6.4825,-6.4824,-6.4823,-6.4822,0,-6.4235,-6.4328,-6.4416,-6.4491,-6.4544,-6.4654,-6.4649,-6.4706,-6.4683,-6.4689,-6.4817,-6.485,-6.4928,-6.4964,-6.4943,-6.5117,-6.5087,-6.5032,-6.4937,-6.511,-6.5178,-6.5206,-6.4836,-6.4833,-6.4831,-6.4829,0,0,-6.4512,-6.4573,-6.4606,-6.4638,-6.4692,-6.4763,-6.4869,-6.4946,-6.4995,-6.5047,-6.5134,-6.525,-6.5199,-6.5241,-6.5223,-6.5298,-6.5467,-6.5233,-6.5233,-6.5274,-6.566,-6.57,-6.5733,-6.5438,-6.5443,-6.5448,-6.5655,0,-6.472,-6.4906,-6.489,-6.5065,-6.515,-6.5094,-6.5186,-6.5228,-6.5236,-6.5308,-6.5315,-6.5397,-6.5325,-6.5349,-6.5421,-6.5432,-6.5544,-6.5416,-6.5517,-6.5521,-6.5506,-6.5769,-6.5813,-6.6007,-6.5682,-6.5686,-6.5689,0,-6.4987,-6.505,-6.5234,-6.5274,-6.5309,-6.5392,-6.5461,-6.5531,-6.5576,-6.5576,-6.5623,-6.5592,-6.5696,-6.56,-6.5743,-6.5657,-6.5697,-6.5708,-6.5715,-6.5723,-6.5616,-6.5783,-6.6069,-6.6098,-6.5731,-6.5728,-6.5725,0,-6.5169,-6.53,-6.5427,-6.5456,-6.5506,-6.5565,-6.5589,-6.5629,-6.5676,-6.5735,-6.5765,-6.5836,-6.5875,-6.5929,-6.5917,-6.5848,-6.6063,-6.5965,-6.6064,-6.6065,-6.6112,-6.6109,-6.6407,-6.6139,-6.6139,-6.6138,-6.6138,0,-6.5402,-6.5517,-6.5509,-6.5587,-6.5713,-6.5693,-6.5818,-6.5833,-6.587,-6.5948,-6.5903,-6.5978,-6.5958,-6.6031,-6.6022,-6.6141,-6.6159,-6.6161,-6.6157,-6.6165,-6.6164,-6.619,-6.6176,-6.6146,-6.6144,-6.6143,-6.6141,0,-6.5627,-6.5627,-6.5761,-6.5798,-6.5809,-6.5901,-6.593,-6.6003,-6.6007,-6.6107,-6.6129,-6.6135,-6.6218,-6.6212,-6.6306,-6.63,-6.6446,-6.6427,-6.6432,-6.6427,-6.6526,-6.6516,-6.685,-6.6892,-6.6598,-6.6601,-6.6604,0,-6.5776,-6.5863,-6.5909,-6.5959,-6.5986,-6.6067,-6.6115,-6.6098,-6.6149,-6.6207,-6.6272,-6.6352,-6.6415,-6.6551,-6.6562,-6.6633,-6.6614,-6.6726,-6.6625,-6.6629,-6.6615,-6.661,-6.6617,-6.6746,-6.675,-6.6752,-6.6755,0,-6.6039,-6.6034,-6.6106,-6.6178,-6.6236,-6.6291,-6.6341,-6.6384,-6.6372,-6.6431,-6.6517,-6.6566,-6.6662,-6.6741,-6.6808,-6.683,-6.679,-6.6787,-6.6813,-6.6821,-6.682,-6.6821,-6.6485,-6.6779,-6.6776,-6.6775,-6.6773,-6.6772,-6.623,-6.6304,-6.6348,-6.6428,-6.6464,-6.6512,-6.6582,-6.6594,-6.6666,-6.6743,-6.6728,-6.6824,-6.6865,-6.6952,-6.698,-6.7054,-6.7013,-6.7052,-6.7061,-6.7071,-6.7082,-6.6809,-6.7066,-6.7065,-6.7064,-6.7064,-6.7063,0,-6.649,-6.6515,-6.6589,-6.6661,-6.6724,-6.6682,-6.6735,-6.679,-6.6876,-6.6918,-6.6981,-6.7078,-6.7155,-6.7172,-6.7244,-6.73,-6.7283,-6.7319,-6.7315,-6.732,-6.7115,-6.7084,-6.7331,-6.7331,-6.7331,-6.7331,-6.7331,-6.7331,-6.6633,-6.6755,-6.6756,-6.6895,-6.6919,-6.7013,-6.7047,-6.709,-6.7124,-6.7235,-6.7299,-6.731,-6.7342,-6.7416,-6.7483,-6.7486,-6.7514,-6.7558,-6.7554,-6.7361,-6.7334,-6.7309,-6.728,-6.7564,-6.7565,-6.7752,-6.7754,-6.7756]}]]